| time (UTC) | temp C | wind direction | speed KPH | gust KPH | rain 1hr cm | rain 24hr cm | rain mn cm | humidity % | barometer mb |
| 20260510201505 | 21 | 285 | 4.8 | 12.9 | 0.00 | 0.00 | 0.00 | 52 | 925.3 |
| 20260510201006 | 21 | 264 | 3.2 | 8.0 | 0.00 | 0.00 | 0.00 | 53 | 925.2 |
| 20260510200006 | 21 | 265 | 3.2 | 14.5 | 0.00 | 0.00 | 0.00 | 52 | 925.2 |
| 20260510194505 | 21 | 305 | 8.0 | 11.3 | 0.00 | 0.00 | 0.00 | 50 | 925.3 |
| 20260510194005 | 21 | 277 | 6.4 | 11.3 | 0.00 | 0.00 | 0.00 | 50 | 925.2 |
| 20260510193005 | 22 | 191 | 4.8 | 11.3 | 0.00 | 0.00 | 0.00 | 50 | 925.2 |
| 20260510191005 | 23 | 270 | 4.8 | 16.1 | 0.00 | 0.00 | 0.00 | 47 | 925.2 |
| 20260510190505 | 23 | 320 | 3.2 | 8.0 | 0.00 | 0.00 | 0.00 | 47 | 925.1 |
| 20260510190006 | 23 | 304 | 4.8 | 14.5 | 0.00 | 0.00 | 0.00 | 46 | 925.0 |
| 20260510184005 | 23 | 208 | 4.8 | 14.5 | 0.00 | 0.00 | 0.00 | 48 | 925.0 |
| 20260510183505 | 23 | 268 | 4.8 | 11.3 | 0.00 | 0.00 | 0.00 | 47 | 925.1 |
| 20260510183005 | 23 | 282 | 4.8 | 12.9 | 0.00 | 0.00 | 0.00 | 47 | 925.2 |
| 20260510181504 | 23 | 241 | 6.4 | 22.5 | 0.00 | 0.00 | 0.00 | 47 | 925.2 |
| 20260510181005 | 23 | 254 | 8.0 | 14.5 | 0.00 | 0.00 | 0.00 | 47 | 925.1 |
| 20260510180505 | 23 | 281 | 6.4 | 12.9 | 0.00 | 0.00 | 0.00 | 48 | 925.2 |
| 20260510180005 | 23 | 265 | 4.8 | 14.5 | 0.00 | 0.00 | 0.00 | 49 | 925.3 |
| 20260510174505 | 23 | 316 | 8.0 | 14.5 | 0.00 | 0.00 | 0.00 | 49 | 925.4 |
| 20260510174004 | 23 | 276 | 4.8 | 16.1 | 0.00 | 0.00 | 0.00 | 51 | 925.3 |
| 20260510173505 | 22 | 272 | 4.8 | 14.5 | 0.00 | 0.00 | 0.00 | 52 | 925.5 |
| 20260510173005 | 22 | 307 | 6.4 | 16.1 | 0.00 | 0.00 | 0.00 | 53 | 925.5 |
| 20260510171505 | 22 | 277 | 8.0 | 16.1 | 0.00 | 0.00 | 0.00 | 52 | 925.7 |
| 20260510171005 | 22 | 286 | 4.8 | 12.9 | 0.00 | 0.00 | 0.00 | 52 | 925.8 |
| 20260510170505 | 22 | 279 | 8.0 | 14.5 | 0.00 | 0.00 | 0.00 | 52 | 925.8 |
| 20260510164505 | 22 | 269 | 3.2 | 19.3 | 0.00 | 0.00 | 0.00 | 55 | 926.0 |
| 20260510164005 | 22 | 282 | 6.4 | 16.1 | 0.00 | 0.00 | 0.00 | 55 | 926.0 |
| 20260510163505 | 21 | 274 | 8.0 | 14.5 | 0.00 | 0.00 | 0.00 | 55 | 926.0 |
| 20260510163005 | 21 | 289 | 6.4 | 12.9 | 0.00 | 0.00 | 0.00 | 57 | 926.0 |
| 20260510161504 | 21 | 245 | 6.4 | 14.5 | 0.00 | 0.00 | 0.00 | 54 | 926.0 |
| 20260510161005 | 21 | 253 | 8.0 | 16.1 | 0.00 | 0.00 | 0.00 | 54 | 926.0 |
| 20260510160505 | 21 | 266 | 6.4 | 14.5 | 0.00 | 0.00 | 0.00 | 55 | 926.0 |
| 20260510160004 | 21 | 238 | 4.8 | 14.5 | 0.00 | 0.00 | 0.00 | 55 | 925.9 |
| 20260510154505 | 21 | 294 | 9.7 | 12.9 | 0.00 | 0.00 | 0.00 | 54 | 925.8 |
| 20260510154005 | 21 | 152 | 6.4 | 11.3 | 0.00 | 0.00 | 0.00 | 55 | 925.9 |
| 20260510153504 | 21 | 299 | 3.2 | 19.3 | 0.00 | 0.00 | 0.00 | 56 | 926.0 |
| 20260510153005 | 21 | 282 | 6.4 | 14.5 | 0.00 | 0.00 | 0.00 | 57 | 925.9 |
| 20260510151504 | 21 | 275 | 8.0 | 16.1 | 0.00 | 0.00 | 0.00 | 57 | 925.9 |
| 20260510150504 | 21 | 284 | 8.0 | 14.5 | 0.00 | 0.00 | 0.00 | 56 | 925.9 |
| 20260510144004 | 20 | 295 | 4.8 | 14.5 | 0.00 | 0.00 | 0.00 | 59 | 925.9 |
| 20260510143504 | 20 | 272 | 8.0 | 16.1 | 0.00 | 0.00 | 0.00 | 59 | 925.8 |
| 20260510143004 | 20 | 270 | 9.7 | 16.1 | 0.00 | 0.00 | 0.00 | 59 | 925.9 |
| 20260510141504 | 19 | 313 | 6.4 | 11.3 | 0.00 | 0.00 | 0.00 | 62 | 925.8 |
| 20260510141005 | 19 | 285 | 6.4 | 11.3 | 0.00 | 0.00 | 0.00 | 63 | 925.7 |
| 20260510140505 | 19 | 276 | 6.4 | 12.9 | 0.00 | 0.00 | 0.00 | 62 | 925.8 |
| 20260510140006 | 19 | 304 | 6.4 | 16.1 | 0.00 | 0.00 | 0.00 | 64 | 925.8 |
| 20260510134506 | 18 | 289 | 4.8 | 9.7 | 0.00 | 0.00 | 0.00 | 65 | 925.8 |
| 20260510134006 | 18 | 288 | 6.4 | 11.3 | 0.00 | 0.00 | 0.00 | 65 | 925.6 |
| 20260510133506 | 18 | 273 | 4.8 | 11.3 | 0.00 | 0.00 | 0.00 | 67 | 925.7 |
| 20260510133006 | 17 | 285 | 4.8 | 12.9 | 0.00 | 0.00 | 0.00 | 67 | 925.8 |
| 20260510131505 | 17 | 293 | 4.8 | 11.3 | 0.00 | 0.00 | 0.00 | 70 | 925.7 |
| 20260510131005 | 16 | 270 | 4.8 | 11.3 | 0.00 | 0.00 | 0.00 | 71 | 925.8 |
| 20260510130506 | 16 | 280 | 6.4 | 12.9 | 0.00 | 0.00 | 0.00 | 71 | 925.8 |
| 20260510130006 | 16 | 261 | 3.2 | 12.9 | 0.00 | 0.00 | 0.00 | 74 | 925.8 |
| 20260510124505 | 13 | 288 | 4.8 | 9.7 | 0.00 | 0.00 | 0.00 | 81 | 925.7 |
| 20260510124006 | 12 | 291 | 4.8 | 11.3 | 0.00 | 0.00 | 0.00 | 87 | 925.7 |
| 20260510123505 | 11 | 291 | 8.0 | 12.9 | 0.00 | 0.00 | 0.00 | 98 | 925.8 |
| 20260510123005 | 10 | 289 | 3.2 | 11.3 | 0.00 | 0.00 | 0.00 | 100 | 925.7 |
| 20260510121005 | 6 | 90 | 0.0 | 0.0 | 0.00 | 0.00 | 0.00 | 99 | 925.4 |
| 20260510120505 | 6 | 5 | 0.0 | 1.6 | 0.00 | 0.00 | 0.00 | 99 | 925.3 |
| 20260510120006 | 5 | 336 | 0.0 | 1.6 | 0.00 | 0.00 | 0.00 | 99 | 925.2 |
| 20260510113506 | 3 | 7 | 0.0 | 1.6 | 0.00 | 0.00 | 0.00 | 99 | 925.0 |
| 20260510111506 | 3 | 27 | 0.0 | 1.6 | 0.00 | 0.00 | 0.00 | 99 | 924.9 |
| 20260510110005 | 2 | 0 | 0.0 | 3.2 | 0.00 | 0.00 | 0.00 | 99 | 924.7 |
| 20260510104505 | 2 | 152 | 1.6 | 1.6 | 0.00 | 0.00 | 0.00 | 99 | 924.4 |
| 20260510103505 | 2 | 41 | 0.0 | 3.2 | 0.00 | 0.00 | 0.00 | 99 | 924.3 |
| 20260510103005 | 2 | 103 | 0.0 | 1.6 | 0.00 | 0.00 | 0.00 | 99 | 924.3 |
| 20260510101505 | 2 | 26 | 0.0 | 1.6 | 0.00 | 0.00 | 0.00 | 99 | 924.0 |
| 20260510100505 | 2 | 37 | 0.0 | 1.6 | 0.00 | 0.00 | 0.00 | 99 | 923.9 |
| 20260510100005 | 2 | 163 | 0.0 | 1.6 | 0.00 | 0.00 | 0.00 | 99 | 923.9 |
| 20260510094505 | 2 | 218 | 0.0 | 1.6 | 0.00 | 0.00 | 0.00 | 99 | 923.8 |
| 20260510094005 | 2 | 357 | 1.6 | 1.6 | 0.00 | 0.00 | 0.00 | 99 | 923.9 |
| 20260510091505 | 2 | 352 | 0.0 | 1.6 | 0.00 | 0.00 | 0.00 | 99 | 923.8 |
| 20260510090505 | 2 | 354 | 0.0 | 1.6 | 0.00 | 0.00 | 0.00 | 99 | 923.6 |
| 20260510090005 | 2 | 156 | 1.6 | 1.6 | 0.00 | 0.00 | 0.00 | 99 | 923.6 |
| 20260510084504 | 2 | 104 | 0.0 | 1.6 | 0.00 | 0.00 | 0.00 | 99 | 923.5 |
| 20260510084004 | 2 | 138 | 0.0 | 3.2 | 0.00 | 0.00 | 0.00 | 99 | 923.4 |
| 20260510083505 | 2 | 110 | 1.6 | 3.2 | 0.00 | 0.00 | 0.00 | 99 | 923.4 |
| 20260510083005 | 2 | 164 | 0.0 | 3.2 | 0.00 | 0.00 | 0.00 | 99 | 923.3 |
| 20260510081505 | 2 | 239 | 0.0 | 3.2 | 0.00 | 0.00 | 0.00 | 99 | 923.2 |
| 20260510080505 | 2 | 186 | 0.0 | 3.2 | 0.00 | 0.00 | 0.00 | 99 | 923.2 |
| 20260510080004 | 2 | 42 | 1.6 | 3.2 | 0.00 | 0.00 | 0.00 | 99 | 923.2 |
| 20260510071505 | 3 | 18 | 0.0 | 1.6 | 0.00 | 0.00 | 0.00 | 98 | 923.0 |
| 20260510071005 | 3 | 222 | 0.0 | 1.6 | 0.00 | 0.00 | 0.00 | 98 | 923.0 |
| 20260510070004 | 3 | 125 | 0.0 | 1.6 | 0.00 | 0.00 | 0.00 | 98 | 922.9 |
| 20260510064504 | 3 | 183 | 0.0 | 1.6 | 0.00 | 0.00 | 0.00 | 98 | 922.9 |
| 20260510064004 | 3 | 34 | 1.6 | 3.2 | 0.00 | 0.00 | 0.00 | 98 | 922.9 |
| 20260510063004 | 3 | 118 | 0.0 | 1.6 | 0.00 | 0.00 | 0.00 | 98 | 923.0 |
| 20260510061505 | 3 | 62 | 0.0 | 1.6 | 0.00 | 0.00 | 0.00 | 98 | 923.0 |
| 20260510061004 | 3 | 117 | 0.0 | 1.6 | 0.00 | 0.00 | 0.00 | 98 | 923.0 |
| 20260510060504 | 3 | 83 | 0.0 | 1.6 | 0.00 | 0.00 | 0.00 | 98 | 923.0 |
| 20260510060006 | 3 | 127 | 0.0 | 1.6 | 0.00 | 0.00 | 0.00 | 98 | 923.0 |
| 20260510054504 | 4 | 51 | 0.0 | 1.6 | 0.00 | 0.00 | 0.00 | 98 | 922.9 |
| 20260510054004 | 4 | 94 | 0.0 | 1.6 | 0.00 | 0.00 | 0.00 | 98 | 922.9 |
| 20260510051504 | 5 | 42 | 0.0 | 1.6 | 0.00 | 0.00 | 0.00 | 98 | 922.9 |
| 20260510051004 | 5 | 53 | 0.0 | 1.6 | 0.00 | 0.00 | 0.00 | 98 | 923.0 |
| 20260510050504 | 5 | 115 | 0.0 | 1.6 | 0.00 | 0.00 | 0.00 | 98 | 923.0 |
| 20260510050005 | 5 | 64 | 0.0 | 1.6 | 0.00 | 0.00 | 0.00 | 97 | 922.9 |
| 20260510044505 | 5 | 133 | 0.0 | 1.6 | 0.00 | 0.00 | 0.00 | 97 | 923.0 |
| 20260510044006 | 5 | 134 | 0.0 | 1.6 | 0.00 | 0.00 | 0.00 | 97 | 923.0 |
| 20260510043506 | 5 | 162 | 0.0 | 0.0 | 0.00 | 0.00 | 0.00 | 97 | 922.9 |
| 20260510043006 | 5 | 61 | 0.0 | 1.6 | 0.00 | 0.00 | 0.00 | 97 | 922.9 |
| 20260510041505 | 5 | 144 | 0.0 | 1.6 | 0.00 | 0.00 | 0.00 | 97 | 922.8 |
| 20260510040505 | 6 | 119 | 0.0 | 1.6 | 0.00 | 0.00 | 0.00 | 97 | 922.9 |
| 20260510034505 | 6 | 36 | 0.0 | 1.6 | 0.00 | 0.00 | 0.00 | 96 | 922.8 |
| 20260510034006 | 6 | 36 | 0.0 | 1.6 | 0.00 | 0.00 | 0.00 | 96 | 922.8 |
| 20260510033506 | 6 | 14 | 0.0 | 1.6 | 0.00 | 0.00 | 0.00 | 97 | 922.8 |
| 20260510033006 | 6 | 4 | 0.0 | 3.2 | 0.00 | 0.00 | 0.00 | 96 | 922.8 |
| 20260510031505 | 6 | 9 | 0.0 | 1.6 | 0.00 | 0.00 | 0.00 | 96 | 922.8 |
| 20260510031005 | 6 | 60 | 0.0 | 1.6 | 0.00 | 0.00 | 0.00 | 96 | 922.8 |
| 20260510030506 | 6 | 60 | 0.0 | 1.6 | 0.00 | 0.00 | 0.00 | 96 | 922.8 |
| 20260510030005 | 7 | 8 | 0.0 | 1.6 | 0.00 | 0.00 | 0.00 | 95 | 922.8 |
| 20260510024505 | 7 | 51 | 0.0 | 1.6 | 0.00 | 0.00 | 0.00 | 95 | 922.8 |
| 20260510024005 | 7 | 126 | 0.0 | 1.6 | 0.00 | 0.00 | 0.00 | 95 | 922.8 |
| 20260510023506 | 7 | 99 | 1.6 | 3.2 | 0.00 | 0.00 | 0.00 | 95 | 922.8 |
| 20260510023007 | 7 | 106 | 0.0 | 3.2 | 0.00 | 0.00 | 0.00 | 95 | 922.9 |
| 20260510021506 | 7 | 1 | 0.0 | 1.6 | 0.00 | 0.00 | 0.00 | 94 | 922.6 |
| 20260510021005 | 7 | 20 | 0.0 | 1.6 | 0.00 | 0.00 | 0.00 | 94 | 922.5 |
| 20260510020505 | 7 | 80 | 0.0 | 1.6 | 0.00 | 0.00 | 0.00 | 94 | 922.5 |
| 20260510020005 | 7 | 56 | 1.6 | 3.2 | 0.00 | 0.00 | 0.00 | 94 | 922.5 |
| 20260510014505 | 8 | 88 | 0.0 | 1.6 | 0.00 | 0.00 | 0.00 | 92 | 922.1 |
| 20260510013505 | 8 | 51 | 0.0 | 0.0 | 0.00 | 0.00 | 0.00 | 92 | 922.0 |
| 20260510013005 | 8 | 345 | 0.0 | 3.2 | 0.00 | 0.00 | 0.00 | 92 | 921.9 |
| 20260510011505 | 9 | 42 | 0.0 | 1.6 | 0.00 | 0.00 | 0.00 | 90 | 921.7 |
| 20260510011006 | 9 | 65 | 0.0 | 1.6 | 0.00 | 0.00 | 0.00 | 90 | 921.6 |
| 20260510010506 | 10 | 83 | 0.0 | 1.6 | 0.00 | 0.00 | 0.00 | 90 | 921.5 |
| 20260510010005 | 10 | 78 | 0.0 | 1.6 | 0.00 | 0.00 | 0.00 | 88 | 921.4 |
| 20260510004504 | 11 | 58 | 0.0 | 1.6 | 0.00 | 0.00 | 0.00 | 86 | 921.1 |
| 20260510004005 | 11 | 55 | 0.0 | 1.6 | 0.00 | 0.00 | 0.00 | 85 | 921.1 |
| 20260510003505 | 11 | 119 | 0.0 | 1.6 | 0.00 | 0.00 | 0.00 | 84 | 921.1 |
| 20260510003005 | 12 | 108 | 0.0 | 3.2 | 0.00 | 0.00 | 0.00 | 83 | 921.0 |
| 20260510001504 | 13 | 177 | 0.0 | 3.2 | 0.00 | 0.00 | 0.00 | 80 | 921.0 |
| 20260510001005 | 13 | 58 | 0.0 | 3.2 | 0.00 | 0.00 | 0.00 | 78 | 920.9 |
| 20260510000505 | 14 | 111 | 0.0 | 3.2 | 0.00 | 0.00 | 0.00 | 77 | 921.0 |
| 20260510000005 | 15 | 237 | 1.6 | 4.8 | 0.00 | 0.00 | 0.00 | 76 | 920.9 |
| 20260509234504 | 16 | 0 | 1.6 | 4.8 | 0.00 | 0.00 | 0.00 | 68 | 920.7 |
| 20260509234005 | 17 | 26 | 1.6 | 4.8 | 0.00 | 0.00 | 0.00 | 65 | 920.5 |
| 20260509233005 | 18 | 353 | 3.2 | 8.0 | 0.00 | 0.00 | 0.00 | 61 | 920.4 |
| 20260509231505 | 19 | 8 | 3.2 | 4.8 | 0.00 | 0.00 | 0.00 | 58 | 920.3 |
| 20260509231005 | 20 | 13 | 3.2 | 9.7 | 0.00 | 0.00 | 0.00 | 54 | 920.3 |
| 20260509230505 | 20 | 255 | 1.6 | 8.0 | 0.00 | 0.00 | 0.00 | 55 | 920.2 |
| 20260509230005 | 20 | 237 | 3.2 | 11.3 | 0.00 | 0.00 | 0.00 | 54 | 920.3 |
| 20260509224504 | 20 | 354 | 3.2 | 8.0 | 0.00 | 0.00 | 0.00 | 55 | 920.4 |
| 20260509224006 | 20 | 200 | 3.2 | 9.7 | 0.00 | 0.00 | 0.00 | 54 | 920.3 |
| 20260509223504 | 20 | 279 | 4.8 | 8.0 | 0.00 | 0.00 | 0.00 | 53 | 920.4 |
| 20260509221504 | 20 | 277 | 9.7 | 16.1 | 0.00 | 0.00 | 0.00 | 53 | 920.5 |
| 20260509221005 | 20 | 114 | 3.2 | 9.7 | 0.00 | 0.00 | 0.00 | 54 | 920.5 |
| 20260509214505 | 20 | 344 | 4.8 | 12.9 | 0.00 | 0.00 | 0.00 | 56 | 920.4 |
| 20260509213504 | 20 | 13 | 4.8 | 11.3 | 0.00 | 0.00 | 0.00 | 56 | 920.4 |
| 20260509213005 | 19 | 309 | 4.8 | 14.5 | 0.00 | 0.00 | 0.00 | 57 | 920.4 |
| 20260509211505 | 18 | 235 | 4.8 | 11.3 | 0.00 | 0.00 | 0.00 | 60 | 920.5 |
| 20260509211004 | 18 | 232 | 3.2 | 11.3 | 0.00 | 0.00 | 0.00 | 60 | 920.4 |
| 20260509210505 | 18 | 268 | 4.8 | 11.3 | 0.00 | 0.00 | 0.00 | 60 | 920.3 |
| 20260509210004 | 18 | 296 | 4.8 | 11.3 | 0.00 | 0.00 | 0.00 | 60 | 920.3 |
| 20260509204504 | 18 | 345 | 4.8 | 11.3 | 0.00 | 0.00 | 0.00 | 59 | 920.3 |
| 20260509204004 | 18 | 268 | 6.4 | 12.9 | 0.00 | 0.00 | 0.00 | 58 | 920.3 |
| 20260509203504 | 18 | 276 | 6.4 | 11.3 | 0.00 | 0.00 | 0.00 | 59 | 920.2 |
| 20260509203005 | 18 | 325 | 4.8 | 12.9 | 0.00 | 0.00 | 0.00 | 59 | 920.3 |